Terminal Aerodrome Forecast
Issued by NWS

Home | Current Version | Previous Version | Graphics & Text | Print | Product List | Glossary On
Versions: 1 2 3 4 5 6 7 8 9 10 11 12 13 14
000
FTUS43 KTOP 272300
TAFMHK
TAF
KMHK 272320Z 2800/2824 02003KT P6SM SKC=

USA.gov is the U.S. government's official web portal to all federal, state and local government web resources and services.